Flag for United Kingdom Weather past 2 weeks in Belfast, Northern Ireland, United Kingdom

50 °F

Mostly cloudy.

Feels Like: 47 °F
Forecast: 44 / 58 °F
Wind: 8 mph from Northwest

Location: Belfast / Aldergrove Airport

Current Time: Oct 7, 2015 at 5:57:14 AM

Latest Report: Oct 7, 2015 at 5:20 AM

Visibility: N/A

Pressure: 29.71 "Hg

Humidity: 82%

Dew point: 45 °F

Location of BelfastLocation

Historic Weather in Belfast — Graph


Belfast temperature yesterday

Maximum temperature yesterday: 66 °F (at 3:50 PM)
Minimum temperature yesterday: 50 °F (at 11:50 PM)
Average temperature yesterday: 59 °F

Past Weeks' High & Low Weather Summary

High66 °F (Sep 29, 2:20 PM)100% (Sep 22, 4:20 AM)30.63 "Hg (Sep 22, 4:20 AM)
Low37 °F (Oct 1, 11:50 PM)63% (Sep 23, 4:50 PM)29.27 "Hg (Oct 5, 12:50 PM)
Average53 °F88%30.10 "Hg
* Reported Sep 22 4:20 AM — Oct 7 4:20 AM, Belfast, Weather by CustomWeather, © 2015

Note: Actual official high and low records may vary slightly from our data, if they occured in-between our weather recording intervals... More about our weather records


Belfast weather history for previous 24 hours

Time TempWeatherWind HumidityBarometerVisibility
4:20 AM
Wed, Oct 7
52 °FPassing clouds.9 mph82%29.71 "HgN/A
3:50 AM52 °FMostly cloudy.8 mph82%29.71 "HgN/A
3:20 AM52 °FMostly cloudy.10 mph88%29.68 "HgN/A
2:50 AM52 °FMostly cloudy.12 mph88%29.68 "HgN/A
2:20 AM52 °FOvercast.12 mph88%29.65 "HgN/A
1:50 AM52 °FOvercast.10 mph88%29.65 "HgN/A
1:20 AM52 °FOvercast.10 mph88%29.65 "HgN/A
12:50 AM52 °FMostly cloudy.10 mph88%29.65 "HgN/A
12:20 AM50 °FMostly cloudy.10 mph94%29.62 "HgN/A
11:50 PM
Tue, Oct 6
50 °FMostly cloudy.10 mph94%29.62 "HgN/A
10:50 PM52 °FPassing clouds.13 mph94%29.59 "HgN/A
10:20 PM52 °FPassing clouds.12 mph94%29.56 "HgN/A
9:50 PM54 °FPassing clouds.13 mph94%29.56 "HgN/A
9:20 PM55 °FMostly cloudy.15 mph94%29.53 "HgN/A
8:50 PM57 °FOvercast.10 mph94%29.50 "HgN/A
8:20 PM57 °FSprinkles. Partly cloudy.13 mph94%29.50 "HgN/A
7:50 PM59 °FPassing clouds.2 mph88%29.47 "HgN/A
7:20 PM59 °FSprinkles. Broken clouds.3 mph94%29.45 "HgN/A
6:50 PM59 °FBroken clouds.5 mph94%29.45 "HgN/A
6:20 PM63 °FMixture of precip. Broken clouds.2 mph77%29.42 "HgN/A
5:50 PM63 °FScattered clouds.5 mph83%29.42 "HgN/A
5:20 PM63 °FScattered clouds.5 mph77%29.42 "HgN/A
4:50 PM64 °FBroken clouds.6 mph73%29.39 "HgN/A
4:20 PM66 °FScattered clouds.6 mph73%29.39 "HgN/A
3:50 PM66 °FPassing clouds.6 mph68%29.39 "HgN/A
3:20 PM64 °FPassing clouds.6 mph78%29.39 "HgN/A
2:50 PM63 °FPartly sunny.8 mph77%29.39 "HgN/A
2:20 PM63 °FPartly sunny.7 mph77%29.39 "HgN/A
1:50 PM63 °FPartly sunny.7 mph77%29.39 "HgN/A
1:20 PM64 °FBroken clouds.8 mph78%29.36 "HgN/A
12:50 PM64 °FScattered clouds.8 mph73%29.36 "HgN/A
12:20 PM64 °FScattered clouds.9 mph78%29.36 "HgN/A
11:50 AM61 °FScattered clouds.7 mph88%29.36 "HgN/A
11:20 AM61 °FScattered clouds.7 mph88%29.36 "HgN/A
10:50 AM59 °FScattered clouds.7 mph94%29.36 "HgN/A
10:20 AM59 °FScattered clouds.8 mph94%29.36 "HgN/A
9:50 AM59 °FPassing clouds.6 mph94%29.33 "HgN/A
9:20 AM57 °FPassing clouds.7 mph100%29.33 "HgN/A
8:50 AM57 °FPassing clouds.7 mph94%29.33 "HgN/A
8:20 AM57 °FPassing clouds.7 mph94%29.33 "HgN/A
7:50 AM55 °FPassing clouds.6 mph100%29.33 "HgN/A
7:20 AM57 °FPassing clouds.6 mph100%29.30 "HgN/A
6:50 AM59 °FPartly cloudy.5 mph94%29.30 "HgN/A
6:20 AM59 °FPassing clouds.5 mph94%29.30 "HgN/A
5:20 AM59 °FPassing clouds.7 mph100%29.30 "HgN/A
Weather by CustomWeather, © 2015

See weather overviewHow to use our weather pages